Time,TemperatureF,DewpointF,PressureIn,WindDirection,WindDirectionDegrees,WindSpeedMPH,WindSpeedGustMPH,Humidity,HourlyPrecipIn,Conditions,Clouds,dailyrainin,SoftwareType,DateUTC
2013-01-13 00:09:00,49.6,49.0,29.95,NE,55,6.0,14.0,99,0.00,,,0.00,weatherlink.com 1.10,2013-01-13 05:09:00,
2013-01-13 00:24:00,49.6,49.0,29.95,ENE,71,7.0,10.0,99,0.00,,,0.00,weatherlink.com 1.10,2013-01-13 05:24:00,
2013-01-13 00:39:00,49.5,49.0,29.95,ENE,65,8.0,13.0,99,0.00,,,0.00,weatherlink.com 1.10,2013-01-13 05:39:00,
2013-01-13 00:54:00,49.5,49.0,29.95,ENE,61,9.0,12.0,98,0.00,,,0.00,weatherlink.com 1.10,2013-01-13 05:54:00,
2013-01-13 01:09:00,49.4,49.0,29.95,NE,54,8.0,16.0,98,0.00,,,0.00,weatherlink.com 1.10,2013-01-13 06:09:00,
2013-01-13 01:24:00,49.3,49.0,29.94,ENE,67,9.0,11.0,98,0.00,,,0.00,weatherlink.com 1.10,2013-01-13 06:24:00,
2013-01-13 01:39:00,49.2,49.0,29.94,East,82,8.0,11.0,98,0.00,,,0.00,weatherlink.com 1.10,2013-01-13 06:39:00,
2013-01-13 01:54:00,49.1,49.0,29.94,ENE,66,7.0,12.0,98,0.00,,,0.00,weatherlink.com 1.10,2013-01-13 06:54:00,
2013-01-13 02:09:00,48.9,48.0,29.94,ENE,67,9.0,11.0,98,0.00,,,0.00,weatherlink.com 1.10,2013-01-13 07:09:00,
2013-01-13 02:24:00,48.9,48.0,29.94,NE,49,4.0,10.0,98,0.00,,,0.00,weatherlink.com 1.10,2013-01-13 07:24:00,
2013-01-13 02:39:00,48.7,48.0,29.93,NE,56,6.0,10.0,98,0.00,,,0.00,weatherlink.com 1.10,2013-01-13 07:39:00,
2013-01-13 02:54:00,48.6,48.0,29.94,ENE,64,7.0,11.0,98,0.00,,,0.00,weatherlink.com 1.10,2013-01-13 07:54:00,
2013-01-13 03:09:00,48.6,48.0,29.93,ENE,75,8.0,10.0,99,0.00,,,0.00,weatherlink.com 1.10,2013-01-13 08:09:00,
2013-01-13 03:24:00,48.5,48.0,29.94,ENE,65,7.0,11.0,99,0.00,,,0.00,weatherlink.com 1.10,2013-01-13 08:24:00,
2013-01-13 03:39:00,48.5,48.0,29.93,ENE,59,5.0,11.0,99,0.00,,,0.00,weatherlink.com 1.10,2013-01-13 08:39:00,
2013-01-13 03:54:00,48.3,48.0,29.92,East,82,8.0,11.0,99,0.00,,,0.00,weatherlink.com 1.10,2013-01-13 08:54:00,
2013-01-13 04:09:00,48.3,48.0,29.92,ENE,66,8.0,13.0,99,0.00,,,0.00,weatherlink.com 1.10,2013-01-13 09:09:00,
2013-01-13 04:24:00,48.2,48.0,29.92,ENE,69,7.0,12.0,99,0.00,,,0.00,weatherlink.com 1.10,2013-01-13 09:24:00,
2013-01-13 04:39:00,48.1,48.0,29.92,NE,51,6.0,14.0,99,0.00,,,0.00,weatherlink.com 1.10,2013-01-13 09:39:00,
2013-01-13 04:54:00,48.0,48.0,29.91,East,84,9.0,12.0,99,0.00,,,0.00,weatherlink.com 1.10,2013-01-13 09:54:00,
2013-01-13 05:09:00,47.9,48.0,29.91,ENE,69,8.0,11.0,99,0.00,,,0.00,weatherlink.com 1.10,2013-01-13 10:09:00,
2013-01-13 05:24:00,47.8,48.0,29.91,NE,53,7.0,11.0,99,0.00,,,0.00,weatherlink.com 1.10,2013-01-13 10:24:00,
2013-01-13 05:40:00,47.7,48.0,29.92,ENE,64,9.0,10.0,99,0.00,,,0.00,weatherlink.com 1.10,2013-01-13 10:40:00,
2013-01-13 05:55:00,47.7,48.0,29.91,ENE,73,9.0,10.0,99,0.00,,,0.00,weatherlink.com 1.10,2013-01-13 10:55:00,
2013-01-13 06:10:00,47.6,47.0,29.90,NE,55,6.0,12.0,99,0.00,,,0.00,weatherlink.com 1.10,2013-01-13 11:10:00,
2013-01-13 06:25:00,47.5,47.0,29.90,NNE,27,9.0,13.0,99,0.00,,,0.00,weatherlink.com 1.10,2013-01-13 11:25:00,
2013-01-13 06:40:00,47.6,47.0,29.92,ENE,57,8.0,12.0,99,0.00,,,0.00,weatherlink.com 1.10,2013-01-13 11:40:00,
2013-01-13 06:55:00,47.7,48.0,29.93,ENE,68,7.0,12.0,99,0.00,,,0.00,weatherlink.com 1.10,2013-01-13 11:55:00,
2013-01-13 07:10:00,47.6,47.0,29.94,ENE,67,7.0,10.0,99,0.00,,,0.00,weatherlink.com 1.10,2013-01-13 12:10:00,
2013-01-13 07:25:00,47.6,47.0,29.95,ENE,67,8.0,9.0,99,0.00,,,0.00,weatherlink.com 1.10,2013-01-13 12:25:00,
2013-01-13 07:40:00,47.4,47.0,29.96,East,82,7.0,9.0,99,0.00,,,0.00,weatherlink.com 1.10,2013-01-13 12:40:00,
2013-01-13 08:10:00,47.4,47.0,29.98,ENE,60,3.0,8.0,99,0.00,,,0.00,weatherlink.com 1.10,2013-01-13 13:10:00,
2013-01-13 08:25:00,47.5,47.0,30.00,ENE,67,2.0,6.0,99,0.00,,,0.00,weatherlink.com 1.10,2013-01-13 13:25:00,
2013-01-13 08:40:00,47.7,48.0,30.00,ENE,60,2.0,3.0,99,0.00,,,0.00,weatherlink.com 1.10,2013-01-13 13:40:00,
2013-01-13 08:55:00,47.8,48.0,30.00,ENE,59,2.0,4.0,99,0.00,,,0.00,weatherlink.com 1.10,2013-01-13 13:55:00,
2013-01-13 09:10:00,48.1,48.0,30.00,ENE,65,2.0,5.0,99,0.00,,,0.00,weatherlink.com 1.10,2013-01-13 14:10:00,
2013-01-13 09:25:00,48.7,49.0,30.00,ENE,67,1.0,3.0,99,0.00,,,0.00,weatherlink.com 1.10,2013-01-13 14:25:00,
2013-01-13 09:40:00,49.8,50.0,30.00,ENE,73,4.0,5.0,99,0.00,,,0.00,weatherlink.com 1.10,2013-01-13 14:40:00,
2013-01-13 09:55:00,50.3,50.0,30.00,ENE,69,5.0,5.0,99,0.00,,,0.00,weatherlink.com 1.10,2013-01-13 14:55:00,
2013-01-13 10:10:00,51.7,52.0,30.00,NE,46,3.0,8.0,99,0.00,,,0.00,weatherlink.com 1.10,2013-01-13 15:10:00,
2013-01-13 10:25:00,52.9,52.0,30.01,ENE,76,2.0,9.0,95,0.00,,,0.00,weatherlink.com 1.10,2013-01-13 15:25:00,
2013-01-13 10:40:00,53.3,50.0,30.00,East,88,2.0,12.0,89,0.00,,,0.00,weatherlink.com 1.10,2013-01-13 15:40:00,
2013-01-13 10:55:00,53.6,50.0,30.00,NE,49,2.0,6.0,86,0.00,,,0.00,weatherlink.com 1.10,2013-01-13 15:55:00,
2013-01-13 11:10:00,54.2,49.0,29.98,NE,48,3.0,14.0,82,0.00,,,0.00,weatherlink.com 1.10,2013-01-13 16:10:00,
2013-01-13 11:25:00,55.5,49.0,29.98,East,86,3.0,9.0,79,0.00,,,0.00,weatherlink.com 1.10,2013-01-13 16:25:00,
2013-01-13 11:40:00,56.7,49.0,29.97,North,360,7.0,10.0,76,0.00,,,0.00,weatherlink.com 1.10,2013-01-13 16:40:00,
2013-01-13 11:55:00,57.0,48.0,29.95,ENE,68,4.0,13.0,73,0.00,,,0.00,weatherlink.com 1.10,2013-01-13 16:55:00,
2013-01-13 12:10:00,56.4,49.0,29.95,NE,56,5.0,8.0,75,0.00,,,0.00,weatherlink.com 1.10,2013-01-13 17:10:00,
2013-01-13 12:25:00,56.4,49.0,29.95,ENE,67,3.0,5.0,75,0.00,,,0.00,weatherlink.com 1.10,2013-01-13 17:25:00,
2013-01-13 12:40:00,57.2,49.0,29.94,ENE,61,4.0,7.0,74,0.00,,,0.00,weatherlink.com 1.10,2013-01-13 17:40:00,
2013-01-13 12:55:00,57.1,50.0,29.94,ENE,60,3.0,9.0,76,0.00,,,0.00,weatherlink.com 1.10,2013-01-13 17:55:00,
2013-01-13 13:10:00,56.0,51.0,29.94,ENE,68,4.0,7.0,83,0.00,,,0.00,weatherlink.com 1.10,2013-01-13 18:10:00,
2013-01-13 13:25:00,55.9,51.0,29.94,ENE,66,5.0,7.0,84,0.00,,,0.00,weatherlink.com 1.10,2013-01-13 18:25:00,
2013-01-13 13:40:00,55.7,51.0,29.93,ENE,57,5.0,9.0,85,0.00,,,0.00,weatherlink.com 1.10,2013-01-13 18:40:00,
2013-01-13 13:55:00,54.7,50.0,29.93,ENE,73,7.0,9.0,85,0.00,,,0.00,weatherlink.com 1.10,2013-01-13 18:55:00,
2013-01-13 14:10:00,54.1,51.0,29.93,NE,53,4.0,10.0,88,0.00,,,0.00,weatherlink.com 1.10,2013-01-13 19:10:00,
2013-01-13 14:25:00,54.1,51.0,29.94,ENE,61,2.0,6.0,89,0.00,,,0.00,weatherlink.com 1.10,2013-01-13 19:25:00,
2013-01-13 14:40:00,54.1,51.0,29.94,NE,40,3.0,6.0,90,0.00,,,0.00,weatherlink.com 1.10,2013-01-13 19:40:00,
2013-01-13 14:55:00,53.5,51.0,29.94,ENE,63,3.0,9.0,92,0.00,,,0.00,weatherlink.com 1.10,2013-01-13 19:55:00,
2013-01-13 15:10:00,53.7,51.0,29.94,ENE,65,4.0,7.0,91,0.00,,,0.00,weatherlink.com 1.10,2013-01-13 20:10:00,
2013-01-13 15:25:00,53.7,52.0,29.95,ENE,61,4.0,8.0,92,0.00,,,0.00,weatherlink.com 1.10,2013-01-13 20:25:00,
2013-01-13 15:40:00,53.5,52.0,29.95,ENE,70,4.0,7.0,93,0.00,,,0.00,weatherlink.com 1.10,2013-01-13 20:40:00,
2013-01-13 15:55:00,53.2,52.0,29.95,ENE,58,4.0,7.0,94,0.00,,,0.00,weatherlink.com 1.10,2013-01-13 20:55:00,
2013-01-13 16:10:00,52.9,51.0,29.96,ENE,59,3.0,10.0,94,0.00,,,0.00,weatherlink.com 1.10,2013-01-13 21:10:00,
2013-01-13 16:25:00,52.6,51.0,29.96,ENE,64,2.0,8.0,94,0.00,,,0.00,weatherlink.com 1.10,2013-01-13 21:25:00,
2013-01-13 16:40:00,52.3,51.0,29.96,ENE,57,4.0,8.0,95,0.00,,,0.00,weatherlink.com 1.10,2013-01-13 21:40:00,
2013-01-13 16:55:00,52.0,51.0,29.96,ENE,61,5.0,7.0,96,0.00,,,0.00,weatherlink.com 1.10,2013-01-13 21:55:00,
2013-01-13 17:10:00,51.7,51.0,29.96,ENE,70,4.0,7.0,96,0.00,,,0.00,weatherlink.com 1.10,2013-01-13 22:10:00,
2013-01-13 17:25:00,51.5,50.0,29.96,ENE,69,4.0,8.0,96,0.00,,,0.00,weatherlink.com 1.10,2013-01-13 22:25:00,
2013-01-13 17:40:00,51.4,51.0,29.97,ENE,64,4.0,7.0,97,0.00,,,0.00,weatherlink.com 1.10,2013-01-13 22:40:00,
2013-01-13 17:55:00,51.0,50.0,29.97,ENE,59,3.0,7.0,97,0.00,,,0.00,weatherlink.com 1.10,2013-01-13 22:55:00,
2013-01-13 18:10:00,50.8,50.0,29.96,ENE,66,4.0,6.0,97,0.00,,,0.00,weatherlink.com 1.10,2013-01-13 23:10:00,
2013-01-13 18:25:00,50.4,50.0,29.96,ENE,64,5.0,7.0,97,0.00,,,0.00,weatherlink.com 1.10,2013-01-13 23:25:00,
2013-01-13 18:40:00,50.3,50.0,29.97,ENE,71,3.0,10.0,97,0.00,,,0.00,weatherlink.com 1.10,2013-01-13 23:40:00,
2013-01-13 18:55:00,50.0,50.0,29.96,NE,51,6.0,9.0,98,0.00,,,0.00,weatherlink.com 1.10,2013-01-13 23:55:00,
2013-01-13 19:10:00,49.8,49.0,29.97,ENE,70,3.0,9.0,98,0.00,,,0.00,weatherlink.com 1.10,2013-01-14 00:10:00,
2013-01-13 19:25:00,49.6,49.0,29.96,ENE,63,5.0,7.0,98,0.00,,,0.00,weatherlink.com 1.10,2013-01-14 00:25:00,
2013-01-13 19:40:00,49.3,49.0,29.95,ENE,57,4.0,9.0,98,0.00,,,0.00,weatherlink.com 1.10,2013-01-14 00:40:00,
2013-01-13 19:55:00,49.2,49.0,29.95,NE,51,6.0,8.0,98,0.00,,,0.00,weatherlink.com 1.10,2013-01-14 00:55:00,
2013-01-13 20:10:00,49.2,49.0,29.95,ENE,71,5.0,10.0,98,0.00,,,0.00,weatherlink.com 1.10,2013-01-14 01:10:00,
2013-01-13 20:25:00,49.2,49.0,29.96,NE,53,6.0,10.0,98,0.00,,,0.00,weatherlink.com 1.10,2013-01-14 01:25:00,
2013-01-13 20:40:00,49.2,49.0,29.96,ENE,62,3.0,9.0,98,0.00,,,0.00,weatherlink.com 1.10,2013-01-14 01:40:00,
2013-01-13 20:55:00,49.1,49.0,29.95,NE,55,5.0,9.0,98,0.00,,,0.00,weatherlink.com 1.10,2013-01-14 01:55:00,
2013-01-13 21:10:00,49.3,49.0,29.95,NE,49,6.0,8.0,98,0.00,,,0.00,weatherlink.com 1.10,2013-01-14 02:10:00,
2013-01-13 21:25:00,49.5,49.0,29.95,ENE,58,5.0,10.0,98,0.00,,,0.00,weatherlink.com 1.10,2013-01-14 02:25:00,
2013-01-13 21:40:00,49.7,49.0,29.94,ENE,69,8.0,9.0,98,0.00,,,0.00,weatherlink.com 1.10,2013-01-14 02:40:00,
2013-01-13 21:55:00,49.9,49.0,29.95,ENE,67,7.0,9.0,98,0.00,,,0.00,weatherlink.com 1.10,2013-01-14 02:55:00,
2013-01-13 22:11:00,50.1,50.0,29.95,NE,55,4.0,11.0,98,0.00,,,0.00,weatherlink.com 1.10,2013-01-14 03:11:00,
2013-01-13 22:26:00,50.2,50.0,29.96,ENE,67,5.0,9.0,99,0.00,,,0.00,weatherlink.com 1.10,2013-01-14 03:26:00,
2013-01-13 22:41:00,50.3,50.0,29.97,NNE,27,3.0,10.0,99,0.00,,,0.00,weatherlink.com 1.10,2013-01-14 03:41:00,
2013-01-13 22:56:00,50.5,50.0,29.97,ENE,78,5.0,10.0,98,0.00,,,0.00,weatherlink.com 1.10,2013-01-14 03:56:00,
2013-01-13 23:11:00,50.6,50.0,29.97,ENE,72,3.0,8.0,98,0.00,,,0.00,weatherlink.com 1.10,2013-01-14 04:11:00,
2013-01-13 23:26:00,50.6,50.0,29.96,NE,35,3.0,9.0,98,0.00,,,0.00,weatherlink.com 1.10,2013-01-14 04:26:00,
2013-01-13 23:41:00,50.8,51.0,29.96,ENE,64,3.0,11.0,99,0.01,,,0.01,weatherlink.com 1.10,2013-01-14 04:41:00,
2013-01-13 23:56:00,50.8,51.0,29.96,ENE,73,4.0,9.0,99,0.01,,,0.01,weatherlink.com 1.10,2013-01-14 04:56:00,